{"data":{"norad_id":58609,"intl_designator":"2023-200W","name":"STARLINK-31085","alt_names":[],"object_type":"PAYLOAD","status":"ACTIVE","operator":null,"country":"US","launch_date":"2023-12-19","launch_site_code":"AFETR","launch_vehicle":null,"mission":null,"orbit_class":"UNKNOWN","rcs_meters":null,"size_class":null,"mass_kg":null,"dimensions":null,"purposes":["comms"],"wikipedia_slug":null,"has_3d_model":false,"image_url":null,"decayed_at":null,"tle_current":{"epoch":"2026-09-20T23:03:22.425408Z","epoch_age_seconds":110116,"freshness":"FRESH","line1":"1 58609U 23200W   26263.96067622 -.00000312  00000+0 -18058-5 0  9996","line2":"2 58609  43.0016 146.1720 0001434 267.3236  92.7452 15.27573693153473","mean_motion":15.27573693,"eccentricity":0.0001434,"inclination_deg":43.0016,"raan_deg":146.172,"arg_perigee_deg":267.3236,"mean_anomaly_deg":92.7452,"bstar":-1.8058e-6,"rev_number":15347,"period_min":94.267137919349,"perigee_km":482.08408473721,"apogee_km":484.05187832591,"semimajor_km":6861.2049815316,"source":"CELESTRAK","updated_at":"2026-09-21T09:00:33.920964Z"}}}